NOAA 16 DEB, 41230

Orbit data source: Space-Track

NOAA 16 DEB, 41230 is space debris in SSO originally from a launch on Thu, 21 Sep 2000 UTC launched from the Air Force Western Test Range (AFWTR). Debris objects in space refer to the collection of defunct objects orbiting the Earth. Examples of debris include non-operational satellites, rocket bodies, and fragments generated from explosions, collisions, or faulty payload assembly.

Loading next visibility...
Identifier
41230, 2000-055EK
Orbit
SSO
Country
Flag of USUS
Related business
Manufacturer
Unknown
Mission
Spacecraft
Bus & Motor
Unknown
Mass
Unknown
Launch date (UTC)
2000-09-21 (26 years ago)
Launch vehicle
Unknown
Launch site
Air Force Western Test Range (AFWTR)
Object type
Payload
Rocket body
Debris
Shape & HBR
Unknown shape, 0.1 m
Radar Cross Section
Medium (>0.1 m² and <1 m²)

Expand to show TLE details & history
Last TLE update: 1 day ago

TLE from 1 day ago
0 NOAA 16 DEB
1 41230U 00055EK  26208.50461212  .00005809  00000-0  14236-2 0  9999
2 41230  98.9961  82.8850 0028922 348.6512  11.4026 14.52610654553794
Epoch: 2026-07-27T12:06Z
TLE epoch observation values (Epoch: 2026-07-27T12:06:38.487Z)
Latitude
-0°
Longitude
-43.9626°
Altitude
699.966 km
Speed
7.517 km/s
True Right ascension
05h 31m 32s
True Declination
0° 00' 00"
Sunlit
Object was in daylight at epoch
Visualization orbit readout
Latitude
Unknown
Longitude
Unknown
Altitude
Unknown
Speed
Unknown
Apparent Right ascension
Unknown
Apparent Declination
Unknown
Sunlit
N/A
Visualization observer readout
Local Sidereal Time
02:43:38
Azimuth
Unknown
Elevation
Unknown
Doppler factor
Unknown
Orbital elements
Apogee altitude
734.777 km
Perigee altitude
693.751 km
Semi-major axis
7,092.401 km
Eccentricity
0.00289
Inclination
98.9961°
RAAN
82.885°
Arg. of periapsis
348.6512°
True anomaly
11.46836°
Mean anomaly
11.4026°
Eccentric anomaly
11.43545°
Mean motion
3.63374 °/min
Orbital period
99.07 mins
BSTAR
0.0014236
Loading maneuver chart data...
Computing Atmospheric mass density...
Loading historical data...
Loading historical data...
Loading historical data...
Loading historical data...
Loading historical data...
Loading historical data...
Loading historical data...

Documentation

Showing up to 5 results
|